Tracking 25648 objects as of 16-May-2022
HD Live streaming from Space Station
objects crossing your sky now

COSMOS 2251 DEB

Track COSMOS 2251 DEB now!
10-day predictions


NORAD ID: 38485
Int'l Code: 1993-036BTV
Perigee: 660.1 km
Apogee: 725.3 km
Inclination: 74.0 °
Period: 98.5 minutes
Semi major axis: 7063 km
RCS: 0.001 m2 (small)
Launch date: June 16, 1993
Source: Commonwealth of Independent States (former USSR) (CIS)
Launch site: PLESETSK MISSILE AND SPACE COMPLEX (PKMTR)

Note: This is SATELLITE DEBRIS
aabbcc
Your satellite tracking list
Your tracking list is empty




NASA's NSSDC Master Catalog

Two Line Element Set (TLE):
1 38485U 93036BTV 22135.47206413  .00004244  00000-0  83287-3 0  9994
2 38485  74.0194 214.1310 0046174 320.9975  38.7864 14.62353930982342
Source of the keplerian elements: AFSPC